Regional Weather Roundup
Issued by NWS Wakefield, VA

Home | Current Version | Previous Version | Graphics & Text | Print | Product List | Glossary On
Versions: 1 2 3 4 5 6 7 8 9 10 11 12 13 14 15 16 17 18 19 20 21 22 23 24 25 26 27 28 29 30 31 32 33 34 35 36 37 38 39 40 41 42 43 44 45 46 47 48 49 50
415
ASUS41 KAKQ 230715
RWRAKQ

REGIONAL WEATHER ROUNDUP
NATIONAL WEATHER SERVICE WAKEFIELD VA
300 AM EDT TUE AUG 23 2016

Note: "fair" indicates few or no clouds below 12,000 feet with no
significant weather and/or obstructions to visibility. * = Denotes
station may not report precipitation (e.g., rain,snow,etc.),
thunder or fog.

VAZ042-051-052>054-056-230800-
NORTHERN VIRGINIA

CITY           SKY/WX    TMP DP  RH WIND       PRES   REMARKS
WASH NATIONAL  PTCLDY    71  61  70 NE3       30.25R
DULLES         CLEAR     64  60  87 NW3       30.26R
FORT BELVOIR   PTCLDY    62  61  95 CALM      30.25R
QUANTICO       CLEAR     67  63  87 NW7       30.25R
FREDERICKSBRG* CLOUDY    67  67 100 CALM      30.23S
STAFFORD*      CLOUDY    62  61  96 CALM      30.28S
WARRENTON      CLOUDY    64  60  86 CALM      30.25S
CULPEPER*      CLOUDY    66  64  94 N3        30.26S
MANASSAS*      MOCLDY    63  61  94 CALM      30.25S
LEESBURG*      CLEAR     63  63 100 CALM      30.28R
WINCHESTER     CLEAR     59  55  88 CALM      30.27S
FRONT ROYAL*   CLOUDY    59  59 100 CALM      30.27R
LURAY*         FAIR     N/A N/A N/A CALM      30.27S
$$

VAZ048-049-060>072-079>083-230800-
CENTRAL AND SOUTH CENTRAL VIRGINIA

CITY           SKY/WX    TMP DP  RH WIND       PRES   REMARKS
RICHMOND       PTCLDY    64  59  83 CALM      30.22S
CHESTERFIELD*  FAIR      63  48  59 CALM      30.24S
PETERSBURG*    PTCLDY   N/A N/A N/A CALM      30.23S
HANOVER        PTCLDY    62  59  90 CALM      30.25R
TAPPAHANNOCK*  PTCLDY    63  63 100 CALM      30.23S
QUINTON*       FAIR      62  61  97 MISG      30.22S
CHARLOTTSVILLE MOCLDY    67  62  84 CALM      30.25S
GORDONSVILLE*  CLOUDY    66  64  94 CALM      30.24
ORANGE*          N/A     68  63  83 CALM      30.27R
LOUISA*        CLOUDY    70  66  88 N5        30.24R
BUMPASS*       PTSUNNY   64  64 100 CALM      30.24S
FARMVILLE*     PTCLDY   N/A N/A N/A CALM      30.23R
CREWE*         FAIR      59  59 100 CALM      30.23R
FORT PICKETT*  NOT AVBL
CHASE CITY*    FAIR      65  61  86 CALM      30.23R
CLARKSVILLE*   FAIR      63  63 100 CALM      30.22S
SOUTH HILL*    CLEAR     62  61  94 CALM      30.28R
LAWRENCEVILLE* FAIR      65  62  88 CALM      30.22S
EMPORIA*       PTCLDY    61  59  94 CALM      30.23S
$$

VAZ088>098-230800-
SOUTHEAST VIRGINIA

CITY           SKY/WX    TMP DP  RH WIND       PRES   REMARKS
NORFOLK        CLEAR     71  66  84 CALM      30.21R
VIRGINIA BEACH PTCLDY    73  64  73 CALM      30.20R
NORFOLK NAVAL  PTCLDY    70  65  84 CALM      30.22R
WEST POINT*    CLEAR     61  60  97 CALM      30.24R
SALUDA*        FAIR      66  64  96 CALM      30.21S
NEWPORT NEWS   CLEAR     65  62  90 E3        30.22R
LANGLEY AFB    CLOUDY    67  64  90 W2        30.21R
FORT EUSTIS    CLEAR     65  62  90 E1        30.19R
WILLIAMSBURG*  PTCLDY    68  66  94 CALM      30.22S
HR EXEC AP*    FAIR      61  55  82 CALM      30.23S
FRANKLIN*      PTCLDY    63  61  93 CALM      30.22S
US460-WAKEFLD  PTCLDY    62  60  93 CALM      30.22R
$$

VAZ020-022-025-037-045-230800-
WEST CENTRAL AND SOUTHWEST VIRGINIA

CITY           SKY/WX    TMP DP  RH WIND       PRES   REMARKS
STAUNTON*      PTCLDY    59  57  91 CALM      30.30R
WAYNESBORO*    PTSUNNY   63  60  91 CALM      30.29S
HOT SPRINGS VA CLEAR     60  52  75 E6        30.35S
LYNCHBURG      PTCLDY    65  63  93 CALM      30.26S
DANVILLE       PTCLDY    61  61 100 CALM      30.23S
SOUTH BOSTON*  NOT AVBL
MARTINSVILLE   CLEAR     58  57  97 CALM      30.28S
ROANOKE        PTCLDY    62  57  83 CALM      30.29R
BLACKSBURG     CLEAR     56  56  99 CALM      30.33F
DUBLIN*        CLEAR     58  57  96 W3        30.33R
MARION*        PTCLDY    57  56  96 CALM      30.35S
HILLSVILLE*    PTCLDY    60  56  88 CALM      30.31F
RICHLANDS*     FAIR      58  56  90 CALM      30.32S
WISE*          CLEAR     57  54  88 CALM      30.33S
ABINGDON*      PTCLDY    63  58  84 E5        30.29S
$$

MDZ021>025-VAZ099-100-230800-
SOUTHERN MARYLAND AND THE DELMARVA PENINSULA

CITY           SKY/WX    TMP DP  RH WIND       PRES   REMARKS
PATUXENT RIVER CLEAR     71  57  61 E8        30.23S
BAY BRIDGE APT CLEAR     70  57  64 E5        30.25R
LEONARDTOWN    CLEAR     64  59  82 CALM      30.25S
DOVER          CLEAR     66  56  71 NE8       30.24R
GEORGETOWN     CLEAR     64  56  75 CALM      30.25R
EASTON         CLEAR     65  61  86 E3        30.29R
CAMBRIDGE      CLEAR     63  55  77 E3        30.24R
SALISBURY      CLEAR     62  59  90 CALM      30.24R
OCEAN CITY     CLEAR     71  56  58 NE9       30.23S
WALLOPS ISLAND CLEAR     69  59  70 N6        30.23S
ACCOMACK*      CLEAR     65  58  76 NE5       30.22S
$$

NCZ012>017-030>032-230800-
NORTH CENTRAL AND EASTERN NORTH CAROLINA

CITY           SKY/WX    TMP DP  RH WIND       PRES   REMARKS
ROANOKE RAPIDS FAIR      63  63 100 CALM      30.22R
RALEIGH        MOCLDY    67  62  84 CALM      30.22R
ELIZABETH CITY PTCLDY    66  65  96 W3        30.21S
AHOSKIE*       PTCLDY    63  63  98 CALM      30.22S
EDENTON*       CLEAR     68  68 100 CALM      30.21S
CURRITUCK*       N/A     69  68  96 CALM      30.22R
KILL DEVIL HLS CLEAR     73  70  92 CALM      30.19R
MANTEO         CLEAR     72  65  79 CALM      30.21R
CAPE HATTERAS  CLEAR     74  63  68 NE6       30.19S
TARBORO*       FAIR      65  65  97 CALM      30.22S
GOLDSBORO      PTCLDY    69  68  99 E3        30.18S
WASHINGTON     PTCLDY    69  65  87 E3        30.21S
GREENVILLE     CLEAR     70  68  94 CALM      30.22R
NEW BERN       MOCLDY    72  69  90 CALM      30.21R
WILMINGTON     CLEAR     71  70  96 CALM      30.18R
$$

VAZ048-230800-
ELSEWHERE

CITY           SKY/WX    TMP DP  RH WIND       PRES   REMARKS
HARRISBURG PA  PTCLDY    61  60  97 CALM      30.26R
BALTIMORE      PTCLDY    61  58  90 CALM      30.25R
ANNAPOLIS      CLEAR     73  59  61 E5        30.24R
ANDREWS AFB    CLEAR     64  59  82 NE1       30.24S
PHILADELPHIA   CLEAR     65  51  60 NE5       30.26R
HENDERSON NC   PTCLDY    62  59  90 CALM      30.23S
GREENSBORO     MOCLDY    67  63  87 NW3       30.23S
ROCKY MOUNT    PTCLDY    66  65  96 NE3       30.21S
$$

VAZ100-230800-
MARINE

STATION/POSITION TIME  TEMP    WIND        PRES    WAVE   SWELL
                       AIR SEA DIR/SP/G            HT/PER HT/PER
                 (UTC) (F)     (DEG/KT/KT) (MB)    (FT/S) (FT/S)
CAPE MAY NJ      0600   67 73   60/  2/  4 1023.4R
LEWES DE         0600   71 76   60/ 11/ 13 1023.7R
OCEAN-CITY-INLET 0600   73 72   40/  4/ 11 1023.8S
WACHAPREAGUE VA  0600   71 81  360/  3/  5 1023.1R
THOMAS POINT MD  0700   73 82   80/ 12/ 14 1025.4R
GOOSES REEF MD   0600   76 83   90/ 12/ 14 1024.3R   1/ 2
COVE POINT MD    0600   74     100/ 11/ 14 1024.3R
SOLOMONS ISLAND  0600   76 85   50/  8/ 11   N/A
BISHOPS HEAD MD  0600   75 80   50/ 10/ 14 1023.7R
PINEY POINT MD   0600           70/  6/  7   N/A
POTOMAC MD       0600   79 84   80/ 12/ 14 1022.1S   1
CAMBRIDGE MD     0600   73 85   70/  9/ 11 1022.9R
LEWISETTA VA     0600   79 82   80/ 11/ 14 1022.7R
RAPPAHANNOCK LGT 0600           60/ 11/ 12 1023.6R
STINGRAY PT      0600   80 84   30/  8/ 12 1023.3R   1/ 2
YORK RVR RNG VA  0600   79      80/  8/ 11 1022.4R
YORKTOWN VA      0600   76 83  330/  5/  6 1022.5R
JAMESTOWN VA     0600   74 85   40/  2/  4   N/A
DOMINION TERM VA 0600   76      CALM  /  2 1022.8R
KIPTOPEKE VA     0600      79   60/  4/  5   N/A
CHES BAY BRIDGE  0600   78 78   40/  6/  7 1022.5S
CAPE HENRY VA    0600   75     350/  2/  3   N/A
WILLOUBY STN VA  0600   78      10/  8/  9   N/A
CAPE HENRY BUOY  0612      80                N/A     2/13
1ST LANDING BUOY 0600   76 77   40/  2/  4 1022.5S   1
CAPE CHARLES BUO 0626      76                N/A     2/13
OFFSHORE WE BUOY 0621      81                N/A     3/ 6
64NM E OF VA BCH 0650   79 81   30/ 12/ 16 1022.1R   3/ 6   2/ 6
DUCK PIER NC     0600   79 77   30/  8/  8 1021.8R
44100 DUCK FRF   0605      80                N/A     3/ 6
44056 DUCK FRF   0611      78                N/A     3/ 6
OREGON INLET NC  0600   75 80   30/  3/  4 1022.3R
HATTERAS NC      0600   79 82   60/  5/  8 1021.9R
DIAMOND SHLS NC  0650   82 85   40/ 14/ 17 1021.9S   3/ 7   2/ 7
CAPE LOOKOUT NC  0600   80      60/  8/  9 1021.8S
$$




USA.gov is the U.S. government's official web portal to all federal, state and local government web resources and services.